Portada
METAR-TAF:

METAR-TAF

Aeropuertos :

Castellón de la Plana, España

Aeropuerto de Castellón-Costa Azahar

latitud: 40-12-35N, longitud: 0-04-11E, altitud: 360 m

Observación

El informe se hizo hace 20 horas y 7 minutos, a las 15:00 UTC
Viento 13 kt del norte-noroeste con ráfagas de 27 kt, variando entre oeste-noroeste y norte-noreste
Temperatura 15°C
Humedad 44%
Presión 1011 hPa
Visibilidad 10 km o más
sin nubes por debajo de 1500 m y sin presencia de cumulonimbus.

METAR: LECH 201500Z AUTO 34013G27KT 300V020 CAVOK 15/03 Q1011

Hora: 12:07 (11:07 UTC)


TAF: falta

Observaciones y pronósticos meteorológicos de más de 4000 aeropuertos (mensajes METAR y TAF).

Los puntos amarillos y rojos representan las estaciones disponibles.

Ponga el ratón en el punto deseado para ver el nombre de la estación.

Haga clic para ver las observaciones y los pronósticos meteorológicos.

Para cambiar el mapa : haga clic en los botones verdes con una cruz de color negro para hacer un zoom, en el botón verde con un guión para alejar o en las flechas verdes para mapas adyacentes.


METAR-TAF: